| time (UTC) | temp C | wind direction | speed KPH | gust KPH | rain 1hr cm | rain 24hr cm | rain mn cm | humidity % | barometer mb |
| 20260506022743 | 13 | 271 | 0.0 | 6.4 | 0.00 | 0.61 | 0.36 | 79 | 1017.0 |
| 20260506022242 | 13 | 271 | 0.0 | 1.6 | 0.00 | 0.61 | 0.36 | 79 | 1016.9 |
| 20260506021740 | 13 | 271 | 0.0 | 1.6 | 0.00 | 0.61 | 0.36 | 78 | 1016.9 |
| 20260506021238 | 14 | 271 | 0.0 | 6.4 | 0.00 | 0.61 | 0.36 | 78 | 1016.9 |
| 20260506020738 | 14 | 271 | 0.0 | 6.4 | 0.00 | 0.61 | 0.36 | 78 | 1016.7 |
| 20260506020238 | 14 | 271 | 0.0 | 0.0 | 0.00 | 0.61 | 0.36 | 78 | 1016.6 |
| 20260506015737 | 14 | 271 | 0.0 | 0.0 | 0.00 | 0.61 | 0.36 | 77 | 1016.6 |
| 20260506015447 | 14 | 271 | 0.0 | 9.7 | 0.00 | 0.61 | 0.36 | 77 | 1016.4 |
| 20260506015021 | 14 | 271 | 0.0 | 9.7 | 0.00 | 0.61 | 0.36 | 77 | 1016.4 |
| 20260506014950 | 14 | 271 | 0.0 | 9.7 | 0.00 | 0.61 | 0.36 | 77 | 1016.4 |
| 20260506014448 | 14 | 271 | 0.0 | 0.0 | 0.00 | 0.61 | 0.36 | 77 | 1016.4 |
| 20260506013734 | 14 | 271 | 0.0 | 0.0 | 0.00 | 0.61 | 0.36 | 77 | 1016.4 |
| 20260506013235 | 14 | 271 | 0.0 | 0.0 | 0.00 | 0.61 | 0.36 | 77 | 1016.4 |
| 20260506012947 | 14 | 271 | 0.0 | 6.4 | 0.00 | 0.61 | 0.36 | 78 | 1016.3 |
| 20260506012232 | 14 | 271 | 0.0 | 6.4 | 0.00 | 0.61 | 0.36 | 78 | 1016.4 |
| 20260506011942 | 14 | 273 | 0.0 | 1.6 | 0.00 | 0.61 | 0.36 | 78 | 1016.4 |
| 20260506011446 | 14 | 273 | 0.0 | 9.7 | 0.00 | 0.61 | 0.36 | 78 | 1016.4 |
| 20260506010943 | 14 | 273 | 0.0 | 9.7 | 0.00 | 0.61 | 0.36 | 77 | 1016.6 |
| 20260506010230 | 15 | 277 | 0.0 | 9.7 | 0.00 | 0.61 | 0.36 | 77 | 1016.6 |
| 20260506005730 | 15 | 280 | 0.0 | 0.0 | 0.00 | 0.61 | 0.36 | 78 | 1016.4 |
| 20260506005230 | 15 | 281 | 0.0 | 1.6 | 0.00 | 0.61 | 0.36 | 79 | 1016.3 |
| 20260506004730 | 15 | 280 | 0.0 | 1.6 | 0.00 | 0.61 | 0.36 | 79 | 1016.4 |
| 20260506004224 | 15 | 279 | 0.0 | 12.9 | 0.00 | 0.61 | 0.36 | 79 | 1016.3 |
| 20260506003718 | 15 | 280 | 0.0 | 12.9 | 0.00 | 0.61 | 0.36 | 78 | 1016.4 |
| 20260506003212 | 15 | 259 | 0.0 | 6.4 | 0.00 | 0.61 | 0.36 | 79 | 1016.3 |
| 20260506002712 | 15 | 258 | 0.0 | 0.0 | 0.00 | 0.61 | 0.36 | 79 | 1016.4 |
| 20260506002212 | 15 | 257 | 0.0 | 0.0 | 0.00 | 0.61 | 0.36 | 78 | 1016.4 |
| 20260506001712 | 15 | 258 | 0.0 | 14.5 | 0.00 | 0.61 | 0.36 | 79 | 1016.2 |
| 20260506001210 | 15 | 258 | 0.0 | 14.5 | 0.00 | 0.61 | 0.36 | 78 | 1016.2 |
| 20260506000710 | 15 | 263 | 0.0 | 1.6 | 0.00 | 0.61 | 0.36 | 79 | 1016.2 |
| 20260506000211 | 15 | 263 | 0.0 | 9.7 | 0.00 | 0.61 | 0.36 | 79 | 1016.1 |
| 20260505235708 | 15 | 263 | 0.0 | 9.7 | 0.00 | 0.61 | 0.36 | 79 | 1016.2 |
| 20260505235205 | 15 | 263 | 0.0 | 3.2 | 0.00 | 0.61 | 0.36 | 79 | 1016.3 |
| 20260505234706 | 15 | 265 | 0.0 | 9.7 | 0.00 | 0.61 | 0.36 | 79 | 1016.2 |
| 20260505234418 | 15 | 265 | 0.0 | 9.7 | 0.00 | 0.61 | 0.36 | 78 | 1016.3 |
| 20260505233706 | 15 | 267 | 0.0 | 8.0 | 0.00 | 0.61 | 0.36 | 78 | 1016.2 |
| 20260505233205 | 15 | 267 | 0.0 | 8.0 | 0.00 | 0.61 | 0.36 | 78 | 1016.2 |
| 20260505232703 | 15 | 267 | 0.0 | 0.0 | 0.00 | 0.61 | 0.36 | 79 | 1016.1 |
| 20260505232204 | 15 | 267 | 0.0 | 0.0 | 0.00 | 0.61 | 0.36 | 79 | 1016.2 |
| 20260505231704 | 15 | 267 | 0.0 | 9.7 | 0.00 | 0.61 | 0.36 | 79 | 1016.2 |
| 20260505231416 | 16 | 267 | 0.0 | 9.7 | 0.00 | 0.61 | 0.36 | 79 | 1016.2 |
| 20260505230704 | 16 | 272 | 0.0 | 1.6 | 0.00 | 0.61 | 0.36 | 78 | 1016.2 |
| 20260505230204 | 16 | 272 | 0.0 | 1.6 | 0.00 | 0.61 | 0.36 | 78 | 1016.3 |
| 20260505225704 | 16 | 271 | 0.0 | 1.6 | 0.00 | 0.61 | 0.36 | 77 | 1016.1 |
| 20260505225204 | 16 | 270 | 0.0 | 8.0 | 0.00 | 0.61 | 0.36 | 77 | 1016.2 |
| 20260505224704 | 16 | 260 | 0.0 | 8.0 | 0.00 | 0.61 | 0.36 | 77 | 1016.1 |
| 20260505224204 | 16 | 259 | 0.0 | 0.0 | 0.00 | 0.61 | 0.36 | 78 | 1016.1 |
| 20260505223704 | 16 | 259 | 0.0 | 0.0 | 0.00 | 0.61 | 0.36 | 77 | 1016.1 |
| 20260505223204 | 16 | 259 | 0.0 | 0.0 | 0.00 | 0.61 | 0.36 | 77 | 1016.1 |
| 20260505222918 | 16 | 259 | 0.0 | 6.4 | 0.00 | 0.61 | 0.36 | 78 | 1016.1 |
| 20260505222204 | 16 | 63 | 0.0 | 6.4 | 0.00 | 0.61 | 0.36 | 76 | 1016.3 |
| 20260505221704 | 16 | 275 | 0.0 | 0.0 | 0.00 | 0.61 | 0.36 | 77 | 1016.2 |
| 20260505221159 | 16 | 276 | 0.0 | 0.0 | 0.00 | 0.61 | 0.36 | 77 | 1016.2 |
| 20260505220915 | 16 | 276 | 0.0 | 0.0 | 0.00 | 0.61 | 0.36 | 77 | 1016.2 |
| 20260505220159 | 16 | 276 | 0.0 | 12.9 | 0.00 | 0.61 | 0.36 | 77 | 1016.3 |
| 20260505215916 | 16 | 275 | 0.0 | 12.9 | 0.00 | 0.61 | 0.36 | 76 | 1016.3 |
| 20260505215158 | 16 | 289 | 0.0 | 0.0 | 0.00 | 0.61 | 0.36 | 76 | 1016.3 |
| 20260505214658 | 16 | 288 | 0.0 | 0.0 | 0.00 | 0.61 | 0.36 | 76 | 1016.4 |
| 20260505214157 | 16 | 288 | 0.0 | 0.0 | 0.00 | 0.61 | 0.36 | 75 | 1016.3 |
| 20260505213658 | 16 | 288 | 0.0 | 1.6 | 0.00 | 0.61 | 0.36 | 76 | 1016.3 |
| 20260505213158 | 16 | 296 | 0.0 | 8.0 | 0.00 | 0.61 | 0.36 | 75 | 1016.4 |
| 20260505212657 | 16 | 279 | 0.0 | 8.0 | 0.00 | 0.61 | 0.36 | 78 | 1016.4 |
| 20260505212157 | 16 | 267 | 0.0 | 8.0 | 0.00 | 0.61 | 0.36 | 79 | 1016.4 |
| 20260505211657 | 15 | 267 | 0.0 | 8.0 | 0.00 | 0.61 | 0.36 | 77 | 1016.6 |
| 20260505211156 | 16 | 266 | 0.0 | 0.0 | 0.00 | 0.61 | 0.36 | 77 | 1016.6 |
| 20260505210655 | 16 | 265 | 0.0 | 0.0 | 0.00 | 0.61 | 0.36 | 77 | 1016.4 |
| 20260505210156 | 16 | 266 | 0.0 | 9.7 | 0.00 | 0.61 | 0.36 | 77 | 1016.4 |
| 20260505205906 | 16 | 263 | 0.0 | 9.7 | 0.00 | 0.61 | 0.36 | 77 | 1016.6 |
| 20260505205639 | 16 | 262 | 0.0 | 3.2 | 0.00 | 0.61 | 0.36 | 76 | 1016.6 |
| 20260505205404 | 16 | 262 | 0.0 | 3.2 | 0.00 | 0.61 | 0.36 | 76 | 1016.6 |
| 20260505204654 | 16 | 265 | 0.0 | 3.2 | 0.00 | 0.61 | 0.36 | 76 | 1016.6 |
| 20260505204152 | 16 | 261 | 0.0 | 0.0 | 0.00 | 0.61 | 0.36 | 75 | 1016.6 |
| 20260505203651 | 16 | 254 | 0.0 | 0.0 | 0.00 | 0.61 | 0.36 | 76 | 1016.7 |
| 20260505203152 | 16 | 254 | 0.0 | 8.0 | 0.00 | 0.61 | 0.36 | 76 | 1016.6 |
| 20260505202904 | 16 | 249 | 0.0 | 8.0 | 0.00 | 0.61 | 0.36 | 77 | 1016.7 |
| 20260505202149 | 15 | 269 | 0.0 | 6.4 | 0.00 | 0.61 | 0.36 | 79 | 1016.7 |
| 20260505201649 | 15 | 270 | 0.0 | 6.4 | 0.00 | 0.61 | 0.36 | 80 | 1016.7 |
| 20260505201150 | 15 | 269 | 0.0 | 6.4 | 0.00 | 0.61 | 0.36 | 81 | 1016.9 |
| 20260505200649 | 15 | 270 | 0.0 | 6.4 | 0.00 | 0.61 | 0.36 | 82 | 1016.8 |
| 20260505200149 | 15 | 270 | 0.0 | 3.2 | 0.00 | 0.61 | 0.36 | 82 | 1016.9 |
| 20260505195652 | 15 | 271 | 0.0 | 12.9 | 0.00 | 0.61 | 0.36 | 82 | 1016.8 |
| 20260505195149 | 14 | 270 | 0.0 | 12.9 | 0.00 | 0.61 | 0.36 | 81 | 1016.8 |
| 20260505194649 | 14 | 272 | 0.0 | 6.4 | 0.00 | 0.61 | 0.36 | 82 | 1016.8 |
| 20260505194149 | 15 | 272 | 0.0 | 6.4 | 0.00 | 0.61 | 0.36 | 81 | 1016.8 |
| 20260505193650 | 15 | 274 | 0.0 | 6.4 | 0.00 | 0.61 | 0.36 | 80 | 1016.8 |
| 20260505193149 | 15 | 274 | 0.0 | 6.4 | 0.00 | 0.61 | 0.36 | 80 | 1016.8 |
| 20260505192649 | 15 | 272 | 0.0 | 1.6 | 0.00 | 0.61 | 0.36 | 80 | 1016.8 |
| 20260505192150 | 15 | 272 | 0.0 | 1.6 | 0.00 | 0.61 | 0.36 | 80 | 1016.9 |
| 20260505191648 | 15 | 273 | 0.0 | 8.0 | 0.00 | 0.61 | 0.36 | 79 | 1016.8 |
| 20260505191147 | 15 | 272 | 0.0 | 8.0 | 0.00 | 0.61 | 0.36 | 80 | 1016.8 |
| 20260505190648 | 15 | 267 | 0.0 | 0.0 | 0.00 | 0.61 | 0.36 | 79 | 1016.8 |
| 20260505190145 | 15 | 265 | 0.0 | 0.0 | 0.00 | 0.61 | 0.36 | 80 | 1016.8 |
| 20260505190133 | 15 | 265 | 0.0 | 0.0 | 0.00 | 0.61 | 0.36 | 81 | 1016.7 |
| 20260505185857 | 15 | 265 | 0.0 | 0.0 | 0.00 | 0.61 | 0.36 | 81 | 1016.7 |